OBJECT AA, 43900

Orbit data source: Space-Track

You're viewing an Uncataloged Satellite

Recently launched and/or uncataloged satellites may have evolving metadata. Metadata may include but not limited to: Owner, Maufacturer, Bus, Motor, and Mission.

OBJECT AA, 43900 is a satellite in SSO that was launched on Thu, 27 Dec 2018 UTC via a SOYUZ-2-1A launch vehicle from the Vostochny Cosmodrome (VOSTO). Unknown objects in Earth's orbit typically refer to objects detected orbiting the Earth but have not yet been identified or cataloged. These objects could be anything from previously untracked satellites, spent rocket stages, debris from satellite collisions, or even natural meteoroids temporarily captured by Earth's gravity.

Loading next visibility...
Identifier
43900, 2018-111AA
Orbit
SSO
Last TLE update
9 hours ago
Origin
Flag of TBDROSK (TBD)
Manufacturer
Roskosmos
Mission
Spacecraft
Bus & Motor
Unknown
Mass
10 kg wet, 10 kg dry
Launch date (UTC)
2018-12-27 (6 years ago)
Launch vehicle
SOYUZ-2-1A
Launch site
Vostochny Cosmodrome (VOSTO)
Object type
Unknown
Shape & HBR
Box, 0.3 m
Radar Cross Section
0.080 m², Medium (>0.1 m² and < 1m²)

Expand to show TLE details & history

TLE from 9 hours ago
0 OBJECT AA
1 43900U 18111AA  25128.90439599  .00020007  00000-0  31033-3 0  9996
2 43900  97.0239 352.8070 0010449 232.2953 127.7355 15.53964747355337
Epoch: 2025-05-08T21:42Z
Definitive object data (Epoch: 2025-05-08T21:42:19.813Z)
Latitude
-0.00002°
Longitude
160.25625°
Altitude
412.654 km
Speed
7.661 km/s
True Right ascension
23h 31m 13s
True Declination
0° 00' 00"
Sunlit
Object was in daylight at TLE epoch
Visualization TLE readout
Latitude
-32.97669°
Longitude
165.18883°
Altitude
418.419 km
Speed
7.658 km/s
Apparent Right ascension
01h 17m 24s
Apparent Declination
-38° 32' 16"
Sunlit
Object is in daylight
Visualization observer readout
Local Sidereal Time
14:59:03
Azimuth
94.176° ESE
Elevation
-70.333°
Doppler factor
1
Orbital elements
Apogee altitude
409.153 km
Perigee altitude
394.984 km
Semi-major axis
6,780.205 km
Eccentricity
0.0010449
Inclination
97.0239°
RAAN
352.807°
Arg. of periapsis
232.2953°
True anomaly
127.83012°
Mean anomaly
127.7355°
Eccentric anomaly
127.78282°
Mean motion
3.88758 °/min
BSTAR
0.00031033
Orbital period
92.6 mins
Loading maneuver chart data...
Loading SW <> Apogee altitude chart data...
Loading historical data...
Loading historical data...
Loading historical data...
Loading historical data...
Loading historical data...
Loading historical data...
Loading historical data...

OBJECT AA Visibility forecast

Observer location: undefined°, undefined°

Span
Click to sort rows by Start time (UTC) header in descending order
Start Az.
Max El. time (UTC)
Max El. Az.
Max El.
End time (UTC)
End Az.
5 mins2025-05-09 14:50:09.623Z158.717° S2025-05-09 14:53:09.623Z29.422° NE40.566°2025-05-09 14:55:09.623Z355.753° N
5 mins2025-05-10 03:38:09.623Z20.055° NNE2025-05-10 03:40:09.623Z92.583° ESE42.83°2025-05-10 03:43:09.623Z184.575° SSW
|